Change the Weather History Date:

Thursday, November 7, 2013

  Actual Average (KMQI) Record (KMQI)
Temperature  
Mean Temperature 58 °F -  
Max Temperature 63 °F 62 °F 77 °F (1975)
Min Temperature 53 °F 50 °F 37 °F (1976)
Degree Days  
Heating Degree Days 6    
Growing Degree Days 8 (Base 50)    
Moisture  
Dew Point 59 °F    
Average Humidity 93    
Maximum Humidity 99    
Minimum Humidity 63    
Precipitation  
Precipitation 0.57 in - - ()
Sea Level Pressure  
Sea Level Pressure 29.96 in    
Wind  
Wind Speed 3 mph (WNW)    
Max Wind Speed 14 mph    
Max Gust Speed 22 mph    
Visibility 7 miles    
Events Fog , Rain    
Averages and records for this station are not official NWS values.
T = Trace of Precipitation, MM = Missing Value Source: NWS Daily Summary

Daily Weather History Graph

Daily Weather History Graph

Search for Another Location

Airport or City:

Trip Planner

Search our weather history database for the weather conditions in past years. The results will help you decide how hot, cold, wet, or windy it might be!

Date:

Astronomy

Nov. 07, 2013 Rise Set
Actual Time 6:31 AM EST 5:00 PM EST
Civil Twilight 6:04 AM EST 5:27 PM EST
Nautical Twilight 5:33 AM EST 5:58 PM EST
Astronomical Twilight 5:03 AM EST 6:28 PM EST
Moon 10:36 AM EST (11/7) 9:11 PM EST (11/7)
Length of Visible Light 11h 23m
Length of Day
10h 29m
Waxing Crescent, 22% of the Moon is Illuminated
Nov 7
Waxing Crescent
Nov 10
First Quarter
Nov 17
Full
Nov 25
Last Quarter
Dec 2
New

Hourly Weather History & Observations

Time (EST) Temp. Dew Point Humidity Pressure Visibility Wind Dir Wind Speed Gust Speed Precip Events Conditions
12:15 AM 60.1 °F 59.5 °F 98% 30.12 in 1.0 mi Calm Calm - N/A   Mostly Cloudy
12:35 AM 60.1 °F 59.5 °F 98% 30.11 in 0.8 mi Calm Calm - N/A   Scattered Clouds
12:55 AM 59.7 °F 59.2 °F 98% 30.10 in 0.2 mi Calm Calm - N/A Fog Fog
1:15 AM 59.4 °F 59.0 °F 99% 30.09 in 0.5 mi Calm Calm - N/A Fog Fog
1:35 AM 60.1 °F 59.5 °F 98% 30.08 in 1.5 mi Calm Calm - N/A   Overcast
1:55 AM 60.4 °F 59.9 °F 98% 30.07 in 1.8 mi Calm Calm - N/A   Mostly Cloudy
2:15 AM 60.3 °F 59.9 °F 99% 30.07 in 1.5 mi Calm Calm - N/A   Mist
2:55 AM 60.1 °F 59.5 °F 98% 30.04 in 1.8 mi Calm Calm - N/A   Mist
3:15 AM 61.0 °F 60.4 °F 98% 30.04 in 5.0 mi SSE 3.5 mph - N/A   Clear
3:35 AM 62.4 °F 61.9 °F 98% 30.02 in 7.0 mi SSE 3.5 mph - N/A   Clear
3:55 AM 62.6 °F 62.1 °F 98% 30.02 in 7.0 mi SSE 3.5 mph - N/A   Mostly Cloudy
4:15 AM 63.5 °F 62.6 °F 97% 30.01 in 10.0 mi Calm Calm - N/A   Overcast
4:35 AM 63.5 °F 62.2 °F 96% 30.01 in 10.0 mi South 3.5 mph - N/A   Scattered Clouds
4:55 AM 63.3 °F 62.1 °F 96% 30.00 in 7.0 mi Calm Calm - N/A   Mostly Cloudy
5:15 AM 63.9 °F 62.6 °F 96% 29.99 in 2.0 mi SSW 6.9 mph - 0.01 in Rain Light Rain
5:35 AM 63.7 °F 62.2 °F 95% 29.98 in 10.0 mi Calm Calm - 0.01 in   Mostly Cloudy
5:55 AM 63.9 °F 62.6 °F 96% 29.99 in 7.0 mi South 8.1 mph - 0.01 in Rain Heavy Rain
6:15 AM 63.7 °F 62.6 °F 96% 29.97 in 7.0 mi SSW 4.6 mph - N/A   Light Drizzle
6:35 AM 63.7 °F 62.8 °F 97% 29.98 in 10.0 mi South 4.6 mph - N/A   Overcast
6:55 AM 63.7 °F 62.8 °F 97% 29.98 in 10.0 mi South 4.6 mph - N/A   Overcast
7:15 AM 63.9 °F 63.0 °F 97% 29.97 in 5.0 mi South 3.5 mph - 0.01 in   Drizzle
7:35 AM 63.9 °F 63.0 °F 97% 29.96 in 7.0 mi Calm Calm - 0.01 in   Light Drizzle
7:55 AM 63.7 °F 62.8 °F 97% 29.96 in 10.0 mi SSE 3.5 mph - 0.01 in   Overcast
8:15 AM 63.7 °F 62.8 °F 97% 29.97 in 1.8 mi SSW 5.8 mph - 0.07 in Rain Heavy Rain
8:35 AM 63.7 °F 62.8 °F 97% 29.97 in 2.0 mi SW 5.8 mph - 0.10 in   Heavy Drizzle
8:55 AM 63.1 °F 62.4 °F 97% 29.96 in 2.5 mi West 3.5 mph - 0.14 in Rain Rain
9:15 AM 61.9 °F 61.2 °F 97% 29.96 in 2.5 mi West 4.6 mph - 0.01 in   Drizzle
9:35 AM 61.0 °F 60.4 °F 98% 29.95 in 2.5 mi Calm Calm - 0.02 in   Drizzle
9:55 AM 61.5 °F 61.0 °F 98% 29.94 in 3.0 mi Calm Calm - 0.03 in Rain Rain
10:15 AM 61.7 °F 61.0 °F 97% 29.94 in 2.0 mi Calm Calm - 0.05 in Rain Heavy Rain
10:35 AM 61.7 °F 61.3 °F 99% 29.94 in 1.8 mi West 5.8 mph - 0.15 in Rain Heavy Rain
10:55 AM 61.7 °F 61.3 °F 99% 29.93 in 2.5 mi West 3.5 mph - 0.22 in Rain Heavy Rain
11:15 AM 62.2 °F 61.7 °F 98% 29.91 in 3.0 mi West 3.5 mph - 0.01 in   Drizzle
11:35 AM 62.6 °F 62.1 °F 98% 29.91 in 1.8 mi Calm Calm - 0.02 in   Heavy Drizzle
11:55 AM 62.4 °F 62.1 °F 99% 29.90 in 2.0 mi West 4.6 mph - 0.07 in Rain Heavy Rain
12:15 PM 61.2 °F 60.6 °F 98% 29.89 in 2.0 mi WNW 3.5 mph - 0.05 in Rain Rain
12:35 PM 61.0 °F 60.6 °F 99% 29.89 in 1.5 mi WNW 8.1 mph - 0.07 in   Drizzle
12:55 PM 60.8 °F 60.6 °F 99% 29.88 in 2.0 mi West 4.6 mph - 0.09 in   Light Drizzle
1:15 PM 61.2 °F 60.8 °F 99% 29.87 in 10.0 mi West 3.5 mph - N/A   Overcast
1:35 PM 61.9 °F 61.3 °F 98% 29.87 in 10.0 mi West 4.6 mph - N/A   Overcast
1:55 PM 61.3 °F 61.2 °F 99% 29.86 in 10.0 mi West 5.8 mph - N/A   Overcast
2:15 PM 61.2 °F 60.8 °F 99% 29.86 in 10.0 mi West 3.5 mph - N/A   Mostly Cloudy
2:35 PM 61.2 °F 60.8 °F 99% 29.87 in 10.0 mi West 5.8 mph - N/A   Scattered Clouds
2:55 PM 61.2 °F 60.6 °F 98% 29.87 in 10.0 mi West 4.6 mph - N/A   Clear
3:15 PM 61.3 °F 60.8 °F 98% 29.87 in 10.0 mi West 5.8 mph - N/A   Clear
3:35 PM 62.2 °F 61.5 °F 97% 29.87 in 10.0 mi West 6.9 mph - N/A   Clear
3:55 PM 62.1 °F 61.0 °F 96% 29.87 in 10.0 mi West 6.9 mph - N/A   Scattered Clouds
4:15 PM 61.7 °F 60.6 °F 96% 29.87 in 10.0 mi West 4.6 mph - N/A   Scattered Clouds
4:35 PM 61.5 °F 60.1 °F 95% 29.87 in 10.0 mi West 4.6 mph - N/A   Clear
4:55 PM 61.3 °F 59.9 °F 95% 29.87 in 10.0 mi West 4.6 mph - N/A   Clear
5:35 PM 61.7 °F 60.1 °F 94% 29.88 in 10.0 mi West 5.8 mph - N/A   Overcast
5:55 PM 61.7 °F 60.1 °F 94% 29.89 in 10.0 mi WNW 3.5 mph - N/A   Overcast
6:15 PM 61.3 °F 59.9 °F 95% 29.89 in 10.0 mi West 3.5 mph - N/A   Overcast
6:35 PM 61.2 °F 59.9 °F 96% 29.91 in 10.0 mi WNW 5.8 mph - N/A   Overcast
6:55 PM 60.8 °F 59.4 °F 95% 29.91 in 10.0 mi WNW 3.5 mph - N/A   Mostly Cloudy
7:15 PM 60.6 °F 59.2 °F 95% 29.92 in 10.0 mi WNW 4.6 mph - N/A   Overcast
7:35 PM 59.0 °F 56.7 °F 92% 29.94 in 10.0 mi North 10.4 mph 17.3 mph N/A   Overcast
7:55 PM 58.1 °F 54.0 °F 86% 29.95 in 10.0 mi North 8.1 mph - N/A   Mostly Cloudy
8:15 PM 58.3 °F 54.1 °F 86% 29.96 in 10.0 mi North 10.4 mph 21.9 mph N/A   Mostly Cloudy
8:35 PM 58.1 °F 54.3 °F 87% 29.96 in 10.0 mi North 11.5 mph 16.1 mph N/A   Overcast
8:55 PM 57.7 °F 53.6 °F 86% 29.96 in 10.0 mi North 9.2 mph - N/A   Overcast
9:15 PM 57.0 °F 51.6 °F 82% 29.96 in 10.0 mi North 10.4 mph 21.9 mph N/A   Overcast
9:35 PM 57.0 °F 51.1 °F 81% 29.97 in 10.0 mi North 9.2 mph 19.6 mph N/A   Overcast
9:55 PM 56.8 °F 50.4 °F 79% 29.98 in 10.0 mi North 10.4 mph 21.9 mph N/A   Overcast
10:15 PM 55.9 °F 48.7 °F 77% 29.99 in 10.0 mi North 10.4 mph 20.7 mph N/A   Overcast
10:35 PM 55.6 °F 45.7 °F 69% 29.99 in 10.0 mi North 11.5 mph 19.6 mph N/A   Overcast
10:55 PM 55.0 °F 44.2 °F 67% 29.99 in 10.0 mi North 13.8 mph 21.9 mph N/A   Overcast
11:15 PM 54.5 °F 42.3 °F 63% 30.00 in 10.0 mi North 10.4 mph 21.9 mph N/A   Overcast
11:35 PM 54.1 °F 41.7 °F 63% 30.00 in 10.0 mi North 10.4 mph 17.3 mph N/A   Overcast
11:55 PM 53.8 °F 41.7 °F 64% 30.01 in 10.0 mi North 11.5 mph 18.4 mph N/A   Overcast